OpenBCM V2.0.2 (Linux)

Packet Radio Mailbox

IZ3LSV

[San Dona' di P. JN]

 Login: GUEST





  
I0OJJ  > KEPS     24.11.25 02:25l 308 Lines 14709 Bytes #20 (0) @ AMSAT
BID : ORB25328.1
Read: GUEST
Subj: 2Line Orbital Elements 25328.AMSAT
Path: IZ3LSV<IK6IHL<IK7NXU<HB9ON<DK0WUE<PD0LPM<PI8ZTM<CX2SA<EA2RCF<I0OJJ
Sent: 251124/0021z @:I0OJJ.ITA.EU [Rome] obcm1.08-11-2-gbfe9
From: I0OJJ @ I0OJJ.ITA.EU (Gustavo)
To:   KEPS @ AMSAT
X-Info: This message was generated automatically


QST de W1STR

AMSAT Orbital Elements for Amateur Satellites in TLE Format
From Orbital Analysis Office
New England Sci-Tech STEM Education Center
Natick MA November 24, 2025
To all radio amateurs


These element sets describe the orbits of various satellites 
in use by the amateur radio community. For details see:
www.amsat.org/keplerian-elements-formats/

A daily update of element sets is available at:
www.amsat.org/tle/daily-bulletin.txt
or without bulletin text:
www.amsat.org/tle/dailytle.txt


AO-07
1 07530U 74089B   25327.67657000 -.00000043  00000-0  21404-4 0  9996
2 07530 101.9973 333.7435 0012251 162.4317 318.2684 12.53693624334766
UO-11
1 14781U 84021B   25327.78954097  .00001736  00000-0  18542-3 0  9994
2 14781  97.7786 291.1167 0008654 134.2458 225.9471 14.90046148226539
AO-27
1 22825U 93061C   25327.76864453  .00000144  00000-0  71916-4 0  9997
2 22825  98.7171  29.9887 0008072 350.7437   9.3596 14.30866528677626
FO-29
1 24278U 96046B   25327.62357475 -.00000016  00000-0  22298-4 0  9991
2 24278  98.5475 199.3223 0348832 269.6874  86.4297 13.53261224445369
GO-32
1 25397U 98043D   25327.52968476  .00000089  00000-0  58433-4 0  9990
2 25397  98.9904 310.3000 0002364  88.2695 271.8754 14.24369039422055
ISS
1 25544U 98067A   25327.25444303  .00013581  00000-0  25410-3 0  9997
2 25544  51.6318 238.9250 0003907 158.5410 201.5743 15.49011795539830
NO-44
1 26931U 01043C   25327.59710417  .00000226  00000-0  11559-3 0  9996
2 26931  67.0519  55.9813 0007325 271.0003  89.0259 14.31839236261015
SO-50
1 27607U 02058C   25327.57796854  .00001675  00000-0  21869-3 0  9995
2 27607  64.5548  44.8173 0071147 300.1375  59.2692 14.82278522233970
CO-55
1 27844U 03031E   25327.55056786  .00000379  00000-0  18352-3 0  9994
2 27844  98.6769 333.7009 0010607  65.8644 294.3643 14.24155393162405
CO-57
1 27848U 03031J   25327.01574842  .00000329  00000-0  16391-3 0  9993
2 27848  98.6797 333.0508 0010616  83.2596 276.9790 14.23466656162042
RS-22
1 27939U 03042A   25327.90194817  .00001396  00000-0  22610-3 0  9990
2 27939  98.3366 141.6023 0010985 194.3677 275.4874 14.72889226185329
CO-58
1 28895U 05043F   25327.40642167  .00002177  00000-0  35630-3 0  9990
2 28895  98.2717 114.1602 0015144 135.5717 224.6706 14.71785934 71472
CO-65
1 32785U 08021C   25327.84626168  .00005619  00000-0  38218-3 0  9992
2 32785  97.8073 300.6737 0010150  19.0325 341.1279 15.06701782954242
CO-66
1 32791U 08021J   25327.67537456  .00016153  00000-0  66228-3 0  9998
2 32791  97.7436 312.1797 0002661   1.8132 358.3113 15.24344474955898
RS-30
1 32953U 08025A   25327.87860999  .00000032  00000-0  15861-3 0  9991
2 32953  82.4999 123.1540 0019605  41.8356 318.4218 12.43171273794186
SRMSAT
1 37841U 11058D   25327.10077793  .00000447  00000-0  98885-4 0  9998
2 37841  19.9711 226.8166 0011873  97.0733  47.5122 14.11501991728665
ZACUBE-1
1 39417U 13066B   25327.43274769  .00006171  00000-0  50830-3 0  9995
2 39417  97.8029 283.9530 0040713 210.7492 149.1345 14.98795108649885
Delfi-N3xt
1 39428U 13066N   25327.75667227  .00005763  00000-0  54833-3 0  9990
2 39428  97.8332 243.7779 0079722 167.5338 192.7878 14.91422280643962
GOMX-1
1 39430U 13066Q   25327.82352968  .00001986  00000-0  30862-3 0  9993
2 39430  97.6606 176.1318 0131267  17.3157 343.2463 14.68454675639762
LO-74
1 39440U 13066AA  25327.82440588  .00004959  00000-0  48234-3 0  9995
2 39440  97.8688 271.5265 0060016 349.5215  10.4748 14.91664883646356
AO-73
1 39444U 13066AE  25327.78177312  .00007946  00000-0  54725-3 0  9997
2 39444  97.8050 290.8365 0038914 178.6350 181.4989 15.05520210648710
DTUSAT-2
1 40030U 14033W   25327.86865013  .00007298  00000-0  43733-3 0  9993
2 40030  98.0747 308.2811 0007159 201.9546 158.1377 15.11291919621635
EO-80
1 40032U 14033Y   25327.48297628  .00008113  00000-0  48468-3 0  9991
2 40032  98.0632 307.2945 0008791 142.6262 217.5580 15.11352011621554
LILACSAT-2
1 40908U 15049K   25327.88058176  .00014877  00000-0  32860-3 0  9991
2 40908  97.4930 352.6918 0006262 281.2208  78.8336 15.43943084563996
IO-86
1 40931U 15052B   25151.18580175  .00001241  00000-0  78118-4 0  9996
2 40931   6.0006  24.0987 0012733 338.8432  21.1169 14.78805930523159
Horyu-4
1 41340U 16012D   25327.74454718  .00043457  00000-0  78679-3 0  9994
2 41340  30.9945  80.1665 0005913  45.1166 314.9962 15.48369964538602
Lapan A3
1 41603U 16040E   25327.87677247  .00004151  00000-0  13933-3 0  9995
2 41603  97.1427 326.1227 0011922  39.7760 320.4353 15.31338143523378
CAS-2T
1 41847U 16066G   25327.77750042  .00001062  00000-0  15814-3 0  9995
2 41847  98.4056  40.7025 0344664  32.5967 329.5997 14.44068241475144
TechnoSat
1 42829U 17042E   25327.42531251  .00003317  00000-0  24858-3 0  9995
2 42829  97.4027 128.4711 0019889  76.6588 283.6854 15.03190413455776
AO-91
1 43017U 17073E   25327.60787212  .00010327  00000-0  49453-3 0  9996
2 43017  97.4958 194.2442 0161681 316.6830  42.1779 15.08255507434352
S-Net D
1 43186U 18014G   25327.72166694  .00005735  00000-0  31917-3 0  9990
2 43186  97.5488 228.9672 0009552  21.5185 338.6446 15.14006224427646
S-Net B
1 43187U 18014H   25327.72942365  .00005954  00000-0  33140-3 0  9991
2 43187  97.5491 228.9548 0010049  16.3997 343.7558 15.13982308427645
S-Net A
1 43188U 18014J   25327.72145435  .00005818  00000-0  32362-3 0  9999
2 43188  97.5500 229.1201 0009961  17.5177 342.6396 15.14012426427644
S-Net C
1 43189U 18014K   25327.73232877  .00005965  00000-0  33196-3 0  9997
2 43189  97.5517 229.1729 0011245   8.5141 351.6280 15.13976628426190
Ten-Koh
1 43677U 18084G   25327.45513245  .00003946  00000-0  30887-3 0  9997
2 43677  98.0706 146.3014 0009274  78.0584 282.1678 15.01625232385278
PO-101
1 43678U 18084H   25327.83246314  .00002121  00000-0  17894-3 0  9997
2 43678  98.1034 150.5367 0007312  92.3267 267.8792 14.99296581385432
QO-100
1 43700U 18090A   25327.73314397  .00000165  00000-0  00000+0 0  9999
2 43700   0.0175  46.2580 0002507 236.3794  70.0746  1.00274267 25619
MinXSS-2
1 43758U 18099A   25327.77075553  .00021758  00000-0  67888-3 0  9995
2 43758  97.4822  34.8959 0008840 285.2754  74.7511 15.33199047382518
AO-95
1 43770U 18099N   25327.72118124  .00011144  00000-0  50119-3 0  9993
2 43770  97.4697  24.1517 0009478 358.6229   1.4979 15.21243479381929
SNUSat 2
1 43782U 18099AA  25327.60852198  .00008205  00000-0  40886-3 0  9993
2 43782  97.4378  19.3472 0009726 298.1619  61.8632 15.17775068381803
SnugLite
1 43784U 18099AC  25327.71311112  .00011107  00000-0  49458-3 0  9992
2 43784  97.4186  19.4315 0001840 308.7823  51.3248 15.21621597382016
ITASat 1
1 43786U 18099AE  25327.68662872  .00007401  00000-0  39170-3 0  9994
2 43786  97.4347  18.3987 0013214 354.9927   5.1172 15.15653566381742
EAGLET 1
1 43790U 18099AJ  25327.69839515  .00005144  00000-0  31272-3 0  9997
2 43790  97.4545  17.7267 0011003 342.4118  17.6729 15.10840476381287
ESEO
1 43792U 18099AL  25327.71306557  .00001680  00000-0  12780-3 0  9991
2 43792  97.4273   8.6733 0010630 322.3308  37.7172 15.03379920380925
JO-97
1 43803U 18099AX  25327.14865126  .00015626  00000-0  61019-3 0  9997
2 43803  97.4449  25.0394 0005219 283.2315  76.8341 15.25970473382129
Suomi 100
1 43804U 18099AY  25327.73263691  .00011483  00000-0  49603-3 0  9994
2 43804  97.4501  24.3485 0009778 286.2334  73.7826 15.22612849382097
ISAT
1 43879U 18111D   25327.77371461  .00035901  00000-0  90063-3 0  9997
2 43879  97.5903 246.7424 0006275 355.1114   5.0069 15.39923271379321
UWE-4
1 43880U 18111E   25327.71302821  .00023008  00000-0  71898-3 0  9997
2 43880  97.5848 243.7303 0010198 357.2510   2.8673 15.33127523379164
Sparrow
1 43881U 18111F   25327.78483959  .00038985  00000-0  91298-3 0  9993
2 43881  97.6087 250.3969 0007194  32.1093 328.0590 15.41984399379443
Prox-1
1 44339U 19036A   25327.42028792  .00013725  00000-0  15594-2 0  9999
2 44339  23.9972  42.6463 0006978 171.8653 188.1959 14.84468817342790
Taurus 1
1 44530U 19059C   25327.83445483  .00007661  00000-0  13233-2 0  9992
2 44530  98.6230 115.6537 0009028 232.4169 127.6216 14.68697206328467
Duchifat 3
1 44854U 19089C   25327.42355519  .00483199  00000-0  16861-2 0  9993
2 44854  36.9305 355.6371 0009198 147.7286 212.4047 15.87117007329051
TO-108
1 44881U 19093C   25327.84732378  .00001088  00000-0  13034-3 0  9999
2 44881  97.7780  39.9000 0014670  46.6150 313.6285 14.86039109320910
FloripaSat 1
1 44885U 19093G   25327.84559378  .00006208  00000-0  49158-3 0  9995
2 44885  97.8061  55.9530 0011955  34.7853 325.4150 15.00898728321813
RS-44
1 44909U 19096E   25327.78155612  .00000019  00000-0  39685-4 0  9990
2 44909  82.5189 116.2067 0216524 264.5855  93.0512 12.79745550276076
SALSAT
1 46495U 20068K   25327.51659894  .00009035  00000-0  35552-3 0  9990
2 46495  97.8775 313.7600 0009138 310.7456  49.2987 15.25856282283950
CSS (TIANHE-1)
1 48274U 21035A   25327.49179859  .00020480  00000-0  25428-3 0  9995
2 48274  41.4658 133.4631 0007945 223.8516 136.1692 15.59482397261020
TUBIN
1 48900U 21059X   25327.80717737  .00325356  43141-4  89748-3 0  9997
2 48900  97.6634 153.4567 0002240 324.8360  35.2766 15.93897285246292
CUTE
1 49263U 21088D   25327.76157586  .00023414  00000-0  32523-3 0  9999
2 49263  97.4366  49.7824 0005063 351.6213   8.4957 15.57006323230347
TeikyoSat 4
1 49396U 21102B   25327.63181556  .00002457  00000-0  16121-3 0  9993
2 49396  97.3919 359.9484 0010597 282.4746  77.5297 15.08516123221721
Z-Sat
1 49399U 21102E   25327.83738448  .00004681  00000-0  24521-3 0  9990
2 49399  97.3603   4.3503 0015848 240.7636 119.2013 15.16172940222305
